TimeCST,TemperatureF,Dew PointF,Humidity,Sea Level PressureIn,VisibilityMPH,Wind Direction,Wind SpeedMPH,Gust SpeedMPH,PrecipitationIn,Events,Conditions,WindDirDegrees,DateUTC
12:15 AM,37.6,31.6,79,30.38,10.0,SSE,5.8,-,N/A,,Clear,160,2012-11-17 06:15:00
12:35 AM,37.2,31.6,80,30.38,10.0,South,8.1,-,N/A,,Clear,170,2012-11-17 06:35:00
12:55 AM,39.4,32.0,75,30.37,10.0,South,9.2,-,N/A,,Clear,170,2012-11-17 06:55:00
1:15 AM,39.9,32.0,73,30.36,10.0,SSE,8.1,-,N/A,,Clear,160,2012-11-17 07:15:00
1:35 AM,39.4,32.2,75,30.36,10.0,SSE,8.1,-,N/A,,Clear,160,2012-11-17 07:35:00
1:55 AM,41.2,32.9,72,30.36,10.0,SSE,10.4,-,N/A,,Clear,160,2012-11-17 07:55:00
2:15 AM,42.1,33.1,70,30.36,10.0,South,9.2,-,N/A,,Clear,170,2012-11-17 08:15:00
2:35 AM,41.4,33.1,72,30.36,10.0,South,9.2,-,N/A,,Clear,170,2012-11-17 08:35:00
2:55 AM,40.5,32.9,74,30.36,10.0,SSE,9.2,-,N/A,,Clear,160,2012-11-17 08:55:00
3:15 AM,39.9,32.7,75,30.36,10.0,SSE,8.1,-,N/A,,Clear,160,2012-11-17 09:15:00
3:35 AM,39.9,32.9,76,30.36,10.0,South,9.2,-,N/A,,Clear,170,2012-11-17 09:35:00
3:55 AM,39.2,32.5,77,30.36,10.0,South,9.2,-,N/A,,Clear,170,2012-11-17 09:55:00
4:15 AM,39.9,32.9,76,30.36,10.0,South,9.2,-,N/A,,Clear,170,2012-11-17 10:15:00
4:35 AM,40.1,32.9,75,30.36,10.0,South,9.2,-,N/A,,Clear,170,2012-11-17 10:35:00
4:55 AM,39.2,32.4,76,30.36,10.0,South,9.2,-,N/A,,Clear,170,2012-11-17 10:55:00
5:15 AM,38.8,32.5,78,30.36,10.0,SSE,8.1,-,N/A,,Clear,160,2012-11-17 11:15:00
5:35 AM,38.8,32.4,78,30.36,10.0,SSE,9.2,-,N/A,,Clear,160,2012-11-17 11:35:00
5:55 AM,38.1,32.0,79,30.36,10.0,SSE,9.2,-,N/A,,Clear,160,2012-11-17 11:55:00
6:15 AM,38.8,32.2,77,30.36,10.0,SSE,9.2,-,N/A,,Clear,160,2012-11-17 12:15:00
6:35 AM,38.8,32.2,77,30.36,10.0,South,9.2,-,N/A,,Clear,170,2012-11-17 12:35:00
6:55 AM,38.5,32.0,78,30.36,10.0,SSE,9.2,-,N/A,,Clear,160,2012-11-17 12:55:00
7:15 AM,38.7,32.0,77,30.36,10.0,South,10.4,-,N/A,,Clear,170,2012-11-17 13:15:00
7:35 AM,39.9,32.2,74,30.37,10.0,SSE,9.2,-,N/A,,Clear,160,2012-11-17 13:35:00
7:55 AM,41.2,32.7,72,30.37,10.0,SSE,10.4,-,N/A,,Clear,160,2012-11-17 13:55:00
8:15 AM,41.7,32.9,71,30.37,10.0,SSE,10.4,-,N/A,,Clear,160,2012-11-17 14:15:00
8:35 AM,43.2,33.3,68,30.38,10.0,South,9.2,-,N/A,,Clear,170,2012-11-17 14:35:00
8:55 AM,43.7,33.4,67,30.38,10.0,South,10.4,-,N/A,,Clear,170,2012-11-17 14:55:00
9:15 AM,45.9,34.7,65,30.37,10.0,SSE,10.4,-,N/A,,Clear,160,2012-11-17 15:15:00
9:35 AM,48.2,35.2,61,30.37,10.0,SSE,11.5,-,N/A,,Clear,160,2012-11-17 15:35:00
9:55 AM,50.9,35.4,55,30.37,10.0,SSE,10.4,-,N/A,,Clear,160,2012-11-17 15:55:00
10:15 AM,52.9,35.2,51,30.37,10.0,South,11.5,17.3,N/A,,Clear,170,2012-11-17 16:15:00
10:35 AM,55.2,34.2,45,30.37,10.0,South,15.0,-,N/A,,Clear,170,2012-11-17 16:35:00
11:55 AM,58.5,32.0,37,30.34,10.0,South,18.4,23.0,N/A,,Clear,170,2012-11-17 17:55:00
12:15 PM,59.5,32.0,35,30.33,10.0,South,15.0,24.2,N/A,,Clear,170,2012-11-17 18:15:00
12:35 PM,59.9,32.0,35,30.32,10.0,SSE,16.1,19.6,N/A,,Clear,160,2012-11-17 18:35:00
12:55 PM,60.1,32.5,35,30.32,10.0,South,15.0,-,N/A,,Clear,170,2012-11-17 18:55:00
1:15 PM,59.7,32.2,35,30.32,10.0,South,16.1,-,N/A,,Clear,180,2012-11-17 19:15:00
1:35 PM,59.9,32.0,35,30.31,10.0,South,15.0,21.9,N/A,,Clear,180,2012-11-17 19:35:00
1:55 PM,60.4,32.0,34,30.30,10.0,SSE,15.0,20.7,N/A,,Clear,160,2012-11-17 19:55:00
2:15 PM,60.6,32.0,34,30.30,10.0,South,17.3,23.0,N/A,,Clear,170,2012-11-17 20:15:00
2:35 PM,60.4,32.2,35,30.29,10.0,SSE,13.8,-,N/A,,Clear,150,2012-11-17 20:35:00
2:55 PM,59.5,32.2,36,30.28,10.0,SSE,16.1,-,N/A,,Clear,150,2012-11-17 20:55:00
3:15 PM,59.0,31.6,36,30.28,10.0,SSE,16.1,23.0,N/A,,Clear,150,2012-11-17 21:15:00
3:35 PM,58.8,30.4,34,30.28,10.0,SSE,18.4,23.0,N/A,,Clear,150,2012-11-17 21:35:00
3:55 PM,58.1,31.1,36,30.28,10.0,SSE,11.5,-,N/A,,Clear,150,2012-11-17 21:55:00
4:15 PM,56.3,30.4,37,30.28,10.0,SSE,10.4,17.3,N/A,,Clear,150,2012-11-17 22:15:00
4:35 PM,54.7,30.9,40,30.28,10.0,SSE,10.4,-,N/A,,Clear,150,2012-11-17 22:35:00
4:55 PM,52.7,31.8,45,30.28,10.0,SSE,10.4,-,N/A,,Clear,150,2012-11-17 22:55:00
5:15 PM,51.1,32.0,48,30.29,10.0,SE,9.2,-,N/A,,Clear,140,2012-11-17 23:15:00
5:35 PM,48.2,32.0,54,30.29,10.0,SE,8.1,-,N/A,,Clear,130,2012-11-17 23:35:00
5:55 PM,46.9,32.0,56,30.28,10.0,SE,9.2,-,N/A,,Clear,140,2012-11-17 23:55:00
6:15 PM,45.9,32.0,58,30.28,10.0,SE,6.9,-,N/A,,Clear,130,2012-11-18 00:15:00
6:35 PM,45.5,32.2,60,30.28,10.0,SE,8.1,-,N/A,,Clear,140,2012-11-18 00:35:00
6:55 PM,44.2,32.2,63,30.28,10.0,SE,9.2,-,N/A,,Clear,140,2012-11-18 00:55:00
7:15 PM,44.1,32.5,64,30.28,10.0,SE,8.1,-,N/A,,Clear,130,2012-11-18 01:15:00
7:35 PM,45.0,32.9,63,30.28,10.0,SE,10.4,-,N/A,,Clear,140,2012-11-18 01:35:00
7:55 PM,45.7,32.5,60,30.28,10.0,SE,11.5,-,N/A,,Clear,140,2012-11-18 01:55:00
8:15 PM,45.0,32.4,61,30.28,10.0,SE,11.5,-,N/A,,Clear,140,2012-11-18 02:15:00
8:35 PM,44.6,32.5,63,30.28,10.0,SE,9.2,-,N/A,,Clear,140,2012-11-18 02:35:00
8:55 PM,44.4,32.2,62,30.29,10.0,SE,10.4,-,N/A,,Clear,140,2012-11-18 02:55:00
9:15 PM,43.3,32.2,65,30.28,10.0,SE,9.2,-,N/A,,Clear,140,2012-11-18 03:15:00
9:35 PM,43.0,32.4,66,30.28,10.0,SE,8.1,-,N/A,,Clear,140,2012-11-18 03:35:00
9:55 PM,43.9,32.0,63,30.28,10.0,SSE,10.4,-,N/A,,Clear,150,2012-11-18 03:55:00
10:15 PM,44.6,32.0,61,30.27,10.0,SSE,11.5,-,N/A,,Clear,150,2012-11-18 04:15:00
10:35 PM,45.0,31.5,59,30.26,10.0,SSE,16.1,19.6,N/A,,Clear,150,2012-11-18 04:35:00
10:55 PM,45.0,30.9,58,30.26,10.0,SSE,13.8,18.4,N/A,,Clear,150,2012-11-18 04:55:00
11:15 PM,45.1,30.6,57,30.26,10.0,SSE,13.8,-,N/A,,Clear,150,2012-11-18 05:15:00
11:35 PM,45.5,30.2,55,30.26,10.0,SSE,12.7,-,N/A,,Clear,150,2012-11-18 05:35:00
11:55 PM,44.8,30.0,56,30.27,10.0,SSE,12.7,-,N/A,,Clear,150,2012-11-18 05:55:00